TimeCST,TemperatureF,Dew PointF,Humidity,Sea Level PressureIn,VisibilityMPH,Wind Direction,Wind SpeedMPH,Gust SpeedMPH,PrecipitationIn,Events,Conditions,WindDirDegrees,DateUTC
12:53 AM,7.0,-0.9,70,30.15,10.0,WNW,12.7,23.0,N/A,,Clear,300,2013-02-20 06:53:00
1:53 AM,7.0,-0.9,70,30.17,10.0,WNW,13.8,-,N/A,,Clear,300,2013-02-20 07:53:00
2:53 AM,6.1,-0.9,73,30.20,10.0,WNW,10.4,-,N/A,,Clear,300,2013-02-20 08:53:00
3:53 AM,6.1,-0.9,73,30.23,10.0,WNW,16.1,20.7,N/A,,Clear,300,2013-02-20 09:53:00
4:53 AM,6.1,-0.9,73,30.25,10.0,WNW,13.8,-,N/A,,Clear,300,2013-02-20 10:53:00
5:53 AM,6.1,-0.9,73,30.27,10.0,WNW,11.5,-,N/A,,Clear,300,2013-02-20 11:53:00
7:53 AM,7.0,1.0,77,30.30,10.0,NW,10.4,-,N/A,,Clear,320,2013-02-20 13:53:00
8:53 AM,9.0,1.9,73,30.31,10.0,NW,10.4,-,N/A,,Clear,310,2013-02-20 14:53:00
9:53 AM,12.0,3.9,70,30.30,10.0,NNW,11.5,-,N/A,,Clear,330,2013-02-20 15:53:00
10:53 AM,15.1,6.1,68,30.32,10.0,NNW,11.5,-,N/A,,Clear,330,2013-02-20 16:53:00
11:53 AM,16.0,7.0,68,30.34,10.0,NNW,12.7,18.4,N/A,,Clear,340,2013-02-20 17:53:00
12:53 PM,17.1,7.0,65,30.33,10.0,WNW,11.5,-,N/A,,Clear,300,2013-02-20 18:53:00
1:53 PM,18.0,8.1,65,30.34,10.0,West,10.4,-,N/A,,Clear,280,2013-02-20 19:53:00
2:53 PM,19.9,9.0,62,30.37,10.0,WNW,11.5,-,N/A,,Clear,300,2013-02-20 20:53:00
3:53 PM,21.0,9.0,60,30.36,10.0,WNW,8.1,-,N/A,,Clear,300,2013-02-20 21:53:00
4:53 PM,19.9,9.0,62,30.37,10.0,WNW,5.8,-,N/A,,Clear,290,2013-02-20 22:53:00
5:53 PM,18.0,9.0,68,30.37,10.0,NNW,3.5,-,N/A,,Clear,330,2013-02-20 23:53:00
6:53 PM,17.1,8.1,68,30.37,10.0,NW,3.5,-,N/A,,Clear,320,2013-02-21 00:53:00
7:53 PM,18.0,9.0,68,30.37,10.0,North,5.8,-,N/A,,Clear,10,2013-02-21 01:53:00
8:53 PM,16.0,8.1,71,30.38,10.0,NNW,4.6,-,N/A,,Clear,330,2013-02-21 02:53:00
9:53 PM,17.1,7.0,65,30.39,10.0,NNE,8.1,-,N/A,,Clear,20,2013-02-21 03:53:00
10:53 PM,15.1,7.0,70,30.40,10.0,North,10.4,17.3,N/A,,Clear,10,2013-02-21 04:53:00
11:53 PM,12.9,6.1,74,30.42,10.0,North,9.2,-,N/A,,Clear,360,2013-02-21 05:53:00